SCP
0 0 0 0 0 0 0 0 0 0 0 0 0 0 0 0 0 0 0 0 0 0 0 0 0 0 0 0 0 0 0 0 0 0 0 0 0 0 0 0 0 0 0 0 0 0 0 0 0 0 0 0 0 0
0 0 0 0 0 0 0 0 0 0 0 0 0 0 0 0 0 0 0 0 0 0 0 0 0 0 0 0 0 0 0 0 0 0 0 0 0 0 0 0 0 0 0 0 0 0 0 0 0 0 0 0 0 0
0 0 0 0 0 0 0 0 0 0 0 0 0 0 0 0 0 0 0 0 0 0 0 0 0 0 0 0 0 0 0 0 0 0 0 0 0 0 0 0 0 0 0 0 0 0 0 0 0 0 0 0 0 0
0 0 0 0 0 0 0 0 0 0 0 0 0 0 0 0 0 0 0 0 0 0 0 0 0 0 0 0 0 0 0 0 0 0 0 0 0 0 0 0 0 0 0 0 0 0 0 0 0 0 0 0 0 0
0 0 0 0 0 0 0 0 0 0 0 0 0 0 0 0 0 0 0 0 0 0 0 0 0 0 0 0 0 0 0 0 0 0 0 0 0 0 0 0 0 0 0 0 0 0 0 0 0 0 0 0 0 0
0 0 0 0 0 0 0 0 0 0 0 0 0 0 0 0 0 0 0 0 0 0 0 0 0 0 0 0 0 0 0 0 0 0 0 0 0 0 0 0 0 0 0 0 0 0 0 0 0 0 0 0 0 0
0 0 0 0 0 0 0 0 0 0 0 0 0 0 0 0 0 0 0 0 0 0 0 0 0 0 0 0 0 0 0 0 0 0 0 0 0 0 0 0 0 0 0 0 0 0 0 0 0 0 0 0 0 0
0 0 0 0 0 0 0 0 0 0 0 0 0 0 0 0 0 0 0 0 0 0 0 0 0 0 0 0 0 0 0 0 0 0 0 0 0 0 0 0 0 0 0 0 0 0 0 0 0 0 0 0 0 0
0 0 0 0 0 0 0 0 0 0 0 0 0 0 0 0 0 0 0 0 0 0 0 0 0 0 0 0 0 0 0 0 0 0 0 0 0 0 0 0 0 0 0 0 0 0 0 0 0 0 0 0 0 0
0 0 0 0 0 0 0 0 0 0 0 0 0 0 0 0 0 0 0 0 0 0 0 0 0 0 0 0 0 0 0 0 0 0 0 0 0 0 0 0 0 0 0 0 0 0 0 0 0 0 0 0 0 0
0 0 0 0 0 0 0 0 0 -0 0 0 0 0 0 0 0 0 0 0 0 0 0 0 0 0 0 0 0 0 0 0 0 0 0 0 0 0 0 0 0 0 0 0 0 0 0 0 0 0 0 0 0 0
0 0 0 0 0 0 0 0 0 0 0 0 0 0 0 0 0 0 0 0 0 0 0 0 0 0 0 0 0 0 0 0 0 0 0 0 0 0 0 0 0 0 0 0 0 0 0 0 0 0 0 0 0 0
0 0 0 0 0 0 0 0 0 0 0 0 0 0 0 0 0 0 0 0 0 0 0 0 0 0 0 0 0 0 0 0 0 0 0 0 0 0 0 0 0 0 0 0 0 0 0 0 0 0 0 0 0 0
0 0 0 0 0 0 0 0 0 0 0 0 0 0 0 0 0 0 0 0 0 0 0 0 0 0 0 0 0 0 0 0 0 0 0 0 0 0 0 0 0 0 0 0 0 0 0 0 0 0 0 0 0 0
0 0 0 0 0 0 0 0 0 0 0 0 0 0 0 0 0 0 0 0 0 0 0 0 0 0 0 0 0 0 0 0 0 0 0 0 0 0 0 0 0 0 0 0 0 0 0 0 0 0 0 0 0 0
0 0 0 0 0 0 0 0 0 0 0 0 0 0 0 0 0 0 0 0 0 0 0 0 0 0 0 0 0 0 0 0 0 0 0 0 0 0 0 0 0 0 0 0 0 0 0 0 0 0 0 0 0 0
0 0 0 0 0 0 0 0 0 0 0 0 0 0 0 0 0 0 0 0 0 0 0 0 0 0 0 0 0 0 0 0 0 0 0 0 0 0 0 0 0 0 0 0 0 0 0 0 0 0 0 0 0 0
0 0 0 0 0 0 0 0 0 0 0 0 0 0 0 0 0 0 0 0 0 0 0 0 0 0 0 0 0 0 0 0 0 0 0 0 0 0 0 0 0 0 0 0 0 0 0 0 0 0 0 0 0 0
0 0 0 0 0 0 0 0 0 0 0 0 0 0 0 0 0 0 0 0 0 0 0 0 0 0 0 0 0 0 0 0 0 0 0 0 0 0 0 0 0 0 0 0 0 0 0 0 0 0 0 0 0 0
0 0 0 0 0 0 0 0 0 0 0 0 0 0 0 0 0 0 0 0 0 0 0 0 0 0 0 0 0 0 0 0 0 0 0 0 0 0 0 0 0 0 0 0 0 0 0 0 0 0 0 0 0 0
0 0 0 0 0 0 0 0 0 0 0 0 0 0 0 0 0 0 0 0 0 0 0 0 0 0 0 0 0 0 0 0 0 0 0 0 0 0 0 0 0 0 0 0 0 0 0 0 0 0 0 0 0 0
0 0 0 0 0 0 0 0 0 0 0 0 0 0 0 0 0 0 0 0 0 0 0 0 0 0 0 0 0 0 0 0 0 0 0 0 0 0 0 0 0 0 0 0 0 0 0 0 0 0 0 0 0 -0
0 0 0 0 0 0 0 0 0 0 0 0 0 0 0 0 0 0 0 0 0 0 0 0 0 0 0 0 0 0 0 0 0 0 0 0 0 0 0 0 0 0 0 0 0 0 0 0 0 0 0 0 -0 -0
0 0 0 0 0 0 0 0 0 0 0 0 0 0 0 0 0 0 0 0 0 0 0 0 0 0 0 0 0 0 0 0 0 0 0 0 0 0 0 0 0 0 0 0 0 0 0 0 0 0 0 0 0 0
0 -0 0 0 0 0 0 0 0 0 0 0 0 0 0 0 0 0 0 0 0 0 0 0 0 0 0 0 0 0 0 0 0 0 0 0 0 0 0 0 0 0 0 0 0 0 0 0 0 0 0 0 0 0
-0 0 0 0 0 0 0 0 0 0 0 0 0 0 0 0 0 0 0 0 0 0 0 0 0 0 0 0 0 0 0 0 0 0 0 0 0 0 0 0 0 0 0 0 0 0 0 0 0 0 0 0 0 0
-0 0 0 0 0 0 0 0 0 0 0 0 0 0 0 0 0 0 0 0 0 0 0 0 0 0 0 0 0 0 0 0 0 0 0 0 0 0 0 0 0 0 0 0 0 0 0 0 0 0 0 0 0 0
0 0 0 0 0 0 0 0 0 0 0 0 0 0 0 0 0 0 0 0 0 0 0 0 0 0 0 0 0 0 0 0 0 0 0 0 0 0 0 0 0 0 0 0 0 0 0 0 0 0 0 0 0 0
0 0 0 0 0 0 0 0 0 0 0 0 0 0 0 0 0 0 0 0 0 0 0 0 0 0 0 0 0 0 0 0 0 0 0 0 0 0 0 0 0 0 0 0 0 0 0 0 0 0 0 0 0 0
0 0 0 0 0 0 0 0 0 0 0 0 0 0 0 0 0 0 0 0 0 0 0 0 0 0 0 0 0 0 0 0 0 0 0 0 0 0 0 0 0 0 0 0 0 0 0 0 0 0 0 0 0 0
0 0 0 0 0 0 0 0 0 0 0 0 0 0 0 0 0 0 0 0 0 0 0 0 0 0 0 0 0 0 0 0 0 0 0 0 0 0 0 0 0 0 0 0 0 0 0 0 0 0 0 0 0 0
0 0 0 0 0 0 0 0 0 0 0 0 0 0 0 0 0 0 0 0 0 0 0 0 0 0 0 0 0 0 0 0 0 0 0 0 0 0 0 0 0 0 0 0 0 0 0 0 0 0 0 0 0 0
0 0 0 0 0 0 0 0 0 0 0 0 0 0 0 0 0 0 0 0 0 0 0 0 0 0 0 0 0 0 0 0 0 0 0 0 0 0 0 0 0 0 0 0 0 0 0 0 0 0 0 0 0 0
Wind_Speed_500mb
50 48 47 51 50 49 47 48 48 54 51 50 58 52 49 42 44 47 42 34 38 14 17 21 29 23 23 30 8 23 12 5 5 6 8 7 6 9 4 7 7 10 10 9 3 2 13 4 8 11 7 3 24 23
49 44 48 51 46 47 55 57 51 46 44 46 43 43 43 44 47 57 60 50 42 26 16 18 44 39 37 33 31 47 3 13 24 6 5 2 2 1 7 7 10 5 16 8 13 10 8 16 18 26 27 32 40 45
57 59 50 43 42 49 58 49 53 54 50 49 50 53 54 55 55 53 60 54 48 40 38 51 59 61 55 47 38 26 17 23 20 14 10 6 7 7 8 10 1 10 26 7 4 15 31 66 60 53 58 52 47 49
53 52 57 56 55 50 44 38 45 53 60 58 58 54 57 58 61 58 64 62 58 17 10 32 48 54 57 60 66 53 27 32 23 27 8 5 6 13 8 12 12 23 8 17 17 25 54 63 64 68 69 61 57 48
56 53 49 50 47 46 45 46 51 51 47 44 51 54 58 52 55 64 61 71 79 57 6 10 25 49 46 52 63 76 62 38 31 12 6 8 12 6 4 4 19 43 39 23 23 47 47 49 60 49 42 42 49 54
52 54 55 54 52 49 48 45 46 46 47 50 50 45 48 49 54 52 43 74 74 62 21 9 20 32 45 49 56 61 77 62 41 21 14 17 37 25 9 14 44 65 60 67 55 73 70 68 67 68 59 55 54 59
43 44 46 48 48 48 49 47 49 51 50 50 49 48 50 44 47 52 12 15 52 81 21 6 6 25 40 50 59 51 52 43 38 25 18 27 24 30 10 21 49 54 62 74 82 71 63 76 63 61 56 55 49 50
42 43 44 43 43 43 44 45 46 47 51 48 48 48 43 45 47 55 66 55 26 50 19 5 4 10 43 25 19 34 25 40 32 23 13 20 18 26 15 32 50 63 74 79 77 71 64 65 62 59 56 54 54 52
39 35 31 31 30 33 35 37 37 39 39 40 41 39 39 49 50 58 39 43 54 40 6 7 9 6 32 14 16 23 25 8 16 10 15 18 11 14 22 41 56 78 66 71 72 60 58 56 58 56 46 47 47 48
34 33 30 29 31 37 40 39 36 33 31 31 31 21 15 30 44 29 23 21 39 31 31 7 25 11 33 23 11 14 14 6 7 13 15 11 21 64 63 76 81 64 52 55 54 49 51 49 43 41 44 43 42 41
33 36 36 35 35 42 46 45 34 27 27 25 20 16 11 11 34 25 22 20 20 9 21 26 43 10 28 10 10 23 8 7 7 10 16 8 9 29 75 86 80 69 67 66 60 53 45 43 37 35 37 38 37 37
31 34 36 42 39 39 36 36 40 39 40 20 7 9 15 17 19 13 13 8 11 15 20 9 31 44 21 16 7 13 9 10 10 10 7 7 8 46 62 57 59 61 64 57 48 41 38 35 31 30 31 33 34 35
28 31 30 31 33 34 35 34 36 34 32 35 16 19 13 17 20 15 16 7 6 8 15 22 7 23 15 20 7 9 15 12 12 10 9 9 20 45 46 49 45 43 43 39 35 32 27 26 26 26 28 31 34 32
21 23 21 24 29 31 35 38 41 37 29 19 16 15 13 11 11 9 13 16 15 20 45 40 14 8 16 12 6 9 7 8 10 9 14 7 44 37 36 38 40 40 37 32 28 25 25 24 24 24 26 29 29 31
8 13 17 21 23 27 32 37 42 47 32 21 15 11 15 14 5 6 8 12 14 26 44 15 6 13 5 8 9 8 8 9 11 11 8 23 35 32 35 35 30 28 26 24 22 21 20 20 19 20 22 24 29 32
14 16 11 16 20 18 27 35 40 49 16 18 16 5 1 4 2 5 16 15 25 34 30 13 6 6 9 5 11 12 13 13 9 7 9 19 23 24 25 26 26 25 22 19 18 18 16 14 15 16 19 25 29 32
23 15 22 21 15 24 23 35 34 20 17 11 3 7 2 3 5 9 9 7 33 33 6 5 13 13 6 6 8 9 8 6 4 14 13 12 17 21 25 24 22 19 18 17 15 11 10 11 14 19 20 24 26 27
21 19 26 28 25 21 22 33 17 9 3 3 3 1 4 5 5 8 16 18 17 11 16 8 8 8 9 11 5 3 9 14 14 13 11 12 16 21 20 20 21 20 17 12 8 6 7 11 15 19 21 21 19 18
11 5 9 10 24 22 11 7 6 6 6 6 7 2 2 3 3 6 12 28 22 8 6 6 5 5 5 3 5 8 9 8 12 13 14 16 17 18 20 20 19 16 14 9 5 2 5 9 11 13 14 15 15 14
20 21 24 15 8 14 7 7 7 8 5 5 7 6 6 1 2 4 6 17 14 4 4 3 4 6 6 6 7 6 3 4 13 22 18 19 20 21 19 17 15 14 10 8 6 3 2 3 6 10 12 13 13 13
23 21 22 14 2 10 11 7 9 8 7 7 5 5 2 4 6 6 5 5 3 5 4 9 9 9 7 7 6 7 11 13 8 3 11 27 27 23 18 16 14 11 11 10 8 7 5 4 5 7 9 10 12 13
15 11 10 9 7 9 12 10 10 7 6 7 4 5 7 3 7 8 8 6 11 11 8 7 5 8 11 10 11 11 13 13 8 6 7 12 26 22 19 16 14 15 14 11 8 4 1 2 4 6 8 9 10 12
18 13 7 8 8 10 6 8 5 6 5 1 3 5 4 4 7 5 4 9 9 13 10 6 5 4 5 6 8 9 7 5 3 3 5 8 13 14 16 18 17 13 10 7 3 2 3 3 4 5 6 7 9 11
12 9 13 11 16 4 4 7 6 6 5 5 4 4 6 5 11 3 5 6 12 17 12 8 7 9 7 5 3 4 5 6 9 12 14 14 16 21 19 14 10 5 3 2 2 3 4 3 2 3 5 8 11 14
8 20 14 11 15 10 8 6 5 4 5 5 4 4 5 10 2 6 4 6 24 27 17 10 7 8 6 4 5 8 11 13 17 18 20 18 15 13 10 6 3 0 2 3 4 4 4 4 3 5 9 13 15 17
15 17 12 9 9 7 7 4 7 6 4 4 5 3 6 3 6 6 5 20 16 20 15 10 11 11 8 8 12 17 21 22 21 17 13 9 5 3 2 3 4 4 7 8 9 8 7 6 8 11 13 16 19 22
11 9 14 15 8 6 2 3 1 3 8 7 5 7 5 7 6 4 13 21 21 22 10 6 10 12 16 18 21 22 20 16 10 8 7 5 3 4 7 9 9 10 10 9 10 13 12 12 14 17 20 20 22 25
9 18 7 21 11 12 4 5 7 7 5 10 5 9 5 5 2 13 10 23 24 15 9 8 11 15 17 18 17 12 8 5 5 6 6 5 6 5 6 8 9 10 10 11 12 13 14 17 20 22 25 26 24 25
10 25 12 7 6 12 10 7 4 5 8 6 4 5 4 8 21 24 22 15 14 10 8 9 10 10 9 7 6 6 6 5 5 6 7 8 9 7 6 4 3 4 6 8 11 14 17 20 23 25 27 30 32 35
15 27 11 10 6 7 6 8 4 7 6 6 6 10 12 15 34 48 38 18 11 10 8 7 5 5 6 5 7 6 7 8 9 11 14 13 14 14 14 14 14 15 16 16 17 18 21 25 28 31 39 43 47 50
18 19 8 7 4 5 10 9 6 8 7 9 10 9 6 5 18 52 55 34 16 13 11 10 8 5 4 7 8 7 8 9 12 14 17 18 19 19 18 18 18 19 20 22 25 28 32 37 41 47 51 55 57 58
17 13 8 8 5 9 13 11 5 4 5 5 7 6 5 8 10 30 52 40 29 23 20 16 14 13 12 11 11 11 12 15 17 19 20 21 21 22 23 25 27 31 35 39 43 47 52 56 60 61 61 61 60 60
10 13 8 7 3 5 16 15 2 4 8 6 9 10 10 9 11 29 33 40 42 44 44 41 39 37 30 22 15 18 29 34 37 38 39 39 39 40 41 43 46 48 51 53 55 56 58 58 60 60 61 61 61 60
Wind_Direction_500mb
244 245 228 230 229 230 233 235 238 239 240 235 217 221 213 214 215 222 228 224 204 208 247 220 212 177 166 181 148 152 116 189 148 180 175 212 190 219 192 219 165 161 177 214 168 213 287 132 103 161 206 178 186 202
243 246 246 240 235 237 233 229 234 237 235 233 229 236 244 244 232 221 227 225 222 228 249 228 231 222 211 211 197 170 183 146 169 161 198 197 192 188 163 231 147 245 207 188 187 204 149 203 235 249 258 275 262 265
241 244 240 243 243 243 242 239 231 227 234 240 238 238 242 245 238 238 227 220 218 225 250 241 227 233 223 212 211 183 212 183 183 168 154 200 216 146 174 234 358 269 245 225 292 257 261 267 267 271 278 281 280 285
236 234 232 238 238 240 245 243 245 243 237 239 238 239 236 237 235 237 232 237 228 212 217 257 248 233 239 226 216 214 211 197 191 202 180 175 191 208 223 234 196 226 111 237 251 249 260 267 267 268 273 276 279 279
239 238 235 235 237 240 243 244 244 247 253 253 244 240 237 238 239 231 237 235 235 206 224 238 236 233 234 230 217 217 216 211 184 162 189 215 222 221 189 246 241 234 240 243 247 248 250 255 267 275 271 272 280 285
234 237 240 240 240 240 241 246 250 249 246 247 253 251 247 247 243 244 238 235 237 224 227 209 230 223 223 211 215 216 221 213 201 188 206 228 233 194 215 228 241 244 246 249 251 259 262 268 272 276 280 278 279 281
237 242 245 243 240 238 240 243 246 245 247 247 245 249 246 247 240 233 241 204 221 223 219 219 190 200 204 201 214 218 217 212 206 215 216 228 218 211 232 241 246 246 251 254 255 259 264 264 266 273 274 274 276 274
233 237 238 237 240 245 247 251 252 250 244 244 242 244 245 238 244 244 248 254 242 197 214 225 138 155 177 180 197 198 193 201 205 218 218 222 231 225 246 240 247 256 257 259 261 258 259 267 268 267 267 272 274 272
236 232 236 239 241 247 248 249 247 248 239 240 241 242 241 235 231 235 246 249 250 222 231 202 158 190 169 163 164 172 191 197 199 213 223 199 210 220 228 244 249 250 247 255 264 264 261 256 258 263 267 266 264 266
212 224 235 241 245 245 248 252 244 243 239 234 228 217 223 223 227 223 215 216 207 210 206 199 173 177 165 165 162 148 182 207 203 220 184 213 233 239 247 252 256 259 261 260 254 250 253 254 258 262 265 266 264 260
230 228 233 238 252 250 237 235 233 231 237 217 200 212 211 194 190 195 200 202 198 214 193 188 190 145 177 155 174 195 175 182 203 238 177 217 234 232 243 247 254 259 260 259 260 262 265 269 268 265 264 265 263 259
243 241 242 248 244 239 234 224 224 219 222 224 221 197 201 201 222 244 184 207 188 211 179 176 196 201 157 160 145 177 189 194 222 147 151 230 215 232 245 245 245 245 247 250 254 258 260 260 263 263 262 262 261 263
238 238 237 237 235 232 228 228 224 220 220 225 221 192 200 198 229 218 186 203 204 150 149 151 137 153 146 179 181 171 201 207 115 185 218 222 199 238 238 234 228 232 237 242 244 245 250 256 257 255 252 253 257 261
236 243 240 243 245 242 234 229 221 213 207 200 206 200 205 199 226 202 204 207 176 165 169 168 137 160 168 179 183 200 165 122 197 207 223 218 225 224 211 221 226 231 230 231 237 246 250 251 248 247 251 258 267 275
208 240 250 251 246 245 240 230 224 217 208 223 204 225 206 195 180 154 145 138 162 173 150 148 148 168 159 201 185 113 181 207 208 219 215 212 206 203 210 217 220 217 215 220 228 234 238 241 242 251 263 274 281 285
282 284 252 229 232 236 238 234 220 215 212 204 237 225 207 23 23 176 177 173 178 157 147 136 158 194 210 220 193 187 176 212 226 209 144 172 182 193 200 199 199 201 206 212 215 218 229 247 268 279 289 292 296 299
291 259 241 254 288 266 250 218 214 204 212 209 186 199 297 105 86 126 163 222 174 164 168 162 188 200 145 208 203 171 204 210 106 123 142 165 176 178 179 182 189 194 195 196 200 219 251 278 293 302 306 306 309 311
256 281 262 259 238 236 231 207 198 160 107 68 141 128 198 194 150 164 177 172 178 225 157 190 131 190 195 178 213 215 103 126 120 130 144 158 175 176 179 183 180 181 180 185 202 238 282 308 313 318 324 324 321 315
247 5 222 161 192 195 194 167 148 101 76 128 130 154 188 279 210 187 207 187 201 224 181 184 186 186 206 59 51 66 100 145 163 155 152 161 170 173 174 171 172 173 176 180 195 270 319 327 332 333 331 333 332 328
272 276 265 273 245 173 119 60 91 96 105 127 109 125 153 223 56 108 162 176 155 210 212 205 42 38 40 42 49 69 48 162 164 143 156 169 173 173 170 174 176 177 175 176 161 122 50 10 358 354 348 343 340 338
278 259 250 264 212 78 90 72 62 87 101 90 108 96 26 82 58 49 48 125 141 49 60 50 67 47 45 58 77 108 129 137 146 216 199 179 178 179 181 182 184 184 182 167 142 122 93 44 4 350 348 347 345 341
193 186 151 159 93 76 79 63 99 95 97 106 96 71 41 42 25 18 356 33 49 30 25 25 73 108 111 101 101 117 126 133 133 128 157 170 177 180 185 184 178 178 163 139 125 122 137 299 310 324 332 341 343 342
129 133 93 70 92 61 45 65 74 39 85 89 117 85 31 28 356 33 69 52 59 13 358 7 68 90 84 105 119 137 147 148 135 132 139 156 162 159 163 163 163 167 150 138 152 211 244 271 300 325 340 350 349 348
99 63 40 45 38 66 68 45 52 70 61 30 54 63 10 327 352 57 87 59 9 8 19 47 81 82 92 104 120 119 128 130 130 134 131 138 144 142 145 151 155 162 158 168 238 250 250 247 264 302 331 335 336 339
78 12 21 16 20 27 44 27 9 50 66 14 62 31 338 333 64 54 50 2 5 13 19 38 56 49 47 72 109 124 128 134 133 138 141 144 142 137 138 135 130 234 296 281 261 245 227 228 266 309 322 328 332 333
68 10 38 347 2 40 352 48 30 20 3 77 47 325 323 348 61 50 28 348 355 8 16 47 61 46 68 101 117 120 121 120 121 130 126 122 118 93 9 332 310 307 304 278 256 244 238 261 289 304 314 319 322 323
56 350 5 26 358 319 75 77 10 19 45 31 360 352 9 65 61 323 357 7 359 351 6 88 101 81 98 103 108 114 116 115 112 94 77 58 18 334 309 301 298 291 283 270 256 241 249 270 288 299 306 310 314 315
69 28 23 338 14 26 37 26 33 35 26 353 307 30 71 54 260 337 341 351 358 12 44 94 101 111 117 114 112 109 106 92 72 52 36 21 2 341 320 305 288 282 277 265 258 257 266 278 288 296 302 307 312 313
33 353 352 351 38 52 42 32 52 37 357 -0 354 60 71 58 19 12 356 356 16 43 83 115 111 113 122 106 71 56 41 45 24 34 23 7 352 341 336 331 320 297 281 276 276 280 284 289 294 298 301 306 310 311
2 358 356 4 40 36 5 12 349 351 31 48 85 100 98 85 46 33 26 25 32 47 65 86 96 96 70 52 45 33 4 346 331 325 322 325 318 310 300 291 287 287 289 289 288 286 289 293 296 298 299 302 304 305
350 356 359 19 76 28 360 1 62 73 72 64 80 101 112 101 50 28 23 28 47 55 65 71 71 78 16 2 1 358 354 353 346 332 322 316 310 303 296 291 288 286 287 290 293 294 295 294 295 296 297 299 300 301
350 13 -0 11 6 17 23 25 39 67 70 69 49 64 69 75 62 23 20 33 47 57 57 55 49 39 29 24 28 38 38 19 359 343 331 321 312 302 294 289 288 288 288 289 289 291 292 293 294 296 298 299 300 301
340 355 355 333 344 26 359 354 44 81 61 60 47 50 55 71 77 18 22 38 53 61 63 61 59 54 46 44 27 348 334 328 325 321 317 311 306 301 296 292 290 288 287 287 288 289 289 290 292 293 294 296 297 298
Wind_Speed_850mb
50 48 47 51 50 49 47 48 48 54 51 50 58 52 49 42 44 47 42 34 38 14 17 21 29 23 23 30 8 23 12 5 5 6 8 7 6 9 4 7 7 10 10 9 3 2 13 4 8 11 7 3 24 23
49 44 48 51 46 47 55 57 51 46 44 46 43 43 43 44 47 57 60 50 42 26 16 18 44 39 37 33 31 47 3 13 24 6 5 2 2 1 7 7 10 5 16 8 13 10 8 16 18 26 27 32 40 45
57 59 50 43 42 49 58 49 53 54 50 49 50 53 54 55 55 53 60 54 48 40 38 51 59 61 55 47 38 26 17 23 20 14 10 6 7 7 8 10 1 10 26 7 4 15 31 66 60 53 58 52 47 49
53 52 57 56 55 50 44 38 45 53 60 58 58 54 57 58 61 58 64 62 58 17 10 32 48 54 57 60 66 53 27 32 23 27 8 5 6 13 8 12 12 23 8 17 17 25 54 63 64 68 69 61 57 48
56 53 49 50 47 46 45 46 51 51 47 44 51 54 58 52 55 64 61 71 79 57 6 10 25 49 46 52 63 76 62 38 31 12 6 8 12 6 4 4 19 43 39 23 23 47 47 49 60 49 42 42 49 54
52 54 55 54 52 49 48 45 46 46 47 50 50 45 48 49 54 52 43 74 74 62 21 9 20 32 45 49 56 61 77 62 41 21 14 17 37 25 9 14 44 65 60 67 55 73 70 68 67 68 59 55 54 59
43 44 46 48 48 48 49 47 49 51 50 50 49 48 50 44 47 52 12 15 52 81 21 6 6 25 40 50 59 51 52 43 38 25 18 27 24 30 10 21 49 54 62 74 82 71 63 76 63 61 56 55 49 50
42 43 44 43 43 43 44 45 46 47 51 48 48 48 43 45 47 55 66 55 26 50 19 5 4 10 43 25 19 34 25 40 32 23 13 20 18 26 15 32 50 63 74 79 77 71 64 65 62 59 56 54 54 52
39 35 31 31 30 33 35 37 37 39 39 40 41 39 39 49 50 58 39 43 54 40 6 7 9 6 32 14 16 23 25 8 16 10 15 18 11 14 22 41 56 78 66 71 72 60 58 56 58 56 46 47 47 48
34 33 30 29 31 37 40 39 36 33 31 31 31 21 15 30 44 29 23 21 39 31 31 7 25 11 33 23 11 14 14 6 7 13 15 11 21 64 63 76 81 64 52 55 54 49 51 49 43 41 44 43 42 41
33 36 36 35 35 42 46 45 34 27 27 25 20 16 11 11 34 25 22 20 20 9 21 26 43 10 28 10 10 23 8 7 7 10 16 8 9 29 75 86 80 69 67 66 60 53 45 43 37 35 37 38 37 37
31 34 36 42 39 39 36 36 40 39 40 20 7 9 15 17 19 13 13 8 11 15 20 9 31 44 21 16 7 13 9 10 10 10 7 7 8 46 62 57 59 61 64 57 48 41 38 35 31 30 31 33 34 35
28 31 30 31 33 34 35 34 36 34 32 35 16 19 13 17 20 15 16 7 6 8 15 22 7 23 15 20 7 9 15 12 12 10 9 9 20 45 46 49 45 43 43 39 35 32 27 26 26 26 28 31 34 32
21 23 21 24 29 31 35 38 41 37 29 19 16 15 13 11 11 9 13 16 15 20 45 40 14 8 16 12 6 9 7 8 10 9 14 7 44 37 36 38 40 40 37 32 28 25 25 24 24 24 26 29 29 31
8 13 17 21 23 27 32 37 42 47 32 21 15 11 15 14 5 6 8 12 14 26 44 15 6 13 5 8 9 8 8 9 11 11 8 23 35 32 35 35 30 28 26 24 22 21 20 20 19 20 22 24 29 32
14 16 11 16 20 18 27 35 40 49 16 18 16 5 1 4 2 5 16 15 25 34 30 13 6 6 9 5 11 12 13 13 9 7 9 19 23 24 25 26 26 25 22 19 18 18 16 14 15 16 19 25 29 32
23 15 22 21 15 24 23 35 34 20 17 11 3 7 2 3 5 9 9 7 33 33 6 5 13 13 6 6 8 9 8 6 4 14 13 12 17 21 25 24 22 19 18 17 15 11 10 11 14 19 20 24 26 27
21 19 26 28 25 21 22 33 17 9 3 3 3 1 4 5 5 8 16 18 17 11 16 8 8 8 9 11 5 3 9 14 14 13 11 12 16 21 20 20 21 20 17 12 8 6 7 11 15 19 21 21 19 18
11 5 9 10 24 22 11 7 6 6 6 6 7 2 2 3 3 6 12 28 22 8 6 6 5 5 5 3 5 8 9 8 12 13 14 16 17 18 20 20 19 16 14 9 5 2 5 9 11 13 14 15 15 14
20 21 24 15 8 14 7 7 7 8 5 5 7 6 6 1 2 4 6 17 14 4 4 3 4 6 6 6 7 6 3 4 13 22 18 19 20 21 19 17 15 14 10 8 6 3 2 3 6 10 12 13 13 13
23 21 22 14 2 10 11 7 9 8 7 7 5 5 2 4 6 6 5 5 3 5 4 9 9 9 7 7 6 7 11 13 8 3 11 27 27 23 18 16 14 11 11 10 8 7 5 4 5 7 9 10 12 13
15 11 10 9 7 9 12 10 10 7 6 7 4 5 7 3 7 8 8 6 11 11 8 7 5 8 11 10 11 11 13 13 8 6 7 12 26 22 19 16 14 15 14 11 8 4 1 2 4 6 8 9 10 12
18 13 7 8 8 10 6 8 5 6 5 1 3 5 4 4 7 5 4 9 9 13 10 6 5 4 5 6 8 9 7 5 3 3 5 8 13 14 16 18 17 13 10 7 3 2 3 3 4 5 6 7 9 11
12 9 13 11 16 4 4 7 6 6 5 5 4 4 6 5 11 3 5 6 12 17 12 8 7 9 7 5 3 4 5 6 9 12 14 14 16 21 19 14 10 5 3 2 2 3 4 3 2 3 5 8 11 14
8 20 14 11 15 10 8 6 5 4 5 5 4 4 5 10 2 6 4 6 24 27 17 10 7 8 6 4 5 8 11 13 17 18 20 18 15 13 10 6 3 0 2 3 4 4 4 4 3 5 9 13 15 17
15 17 12 9 9 7 7 4 7 6 4 4 5 3 6 3 6 6 5 20 16 20 15 10 11 11 8 8 12 17 21 22 21 17 13 9 5 3 2 3 4 4 7 8 9 8 7 6 8 11 13 16 19 22
11 9 14 15 8 6 2 3 1 3 8 7 5 7 5 7 6 4 13 21 21 22 10 6 10 12 16 18 21 22 20 16 10 8 7 5 3 4 7 9 9 10 10 9 10 13 12 12 14 17 20 20 22 25
9 18 7 21 11 12 4 5 7 7 5 10 5 9 5 5 2 13 10 23 24 15 9 8 11 15 17 18 17 12 8 5 5 6 6 5 6 5 6 8 9 10 10 11 12 13 14 17 20 22 25 26 24 25
10 25 12 7 6 12 10 7 4 5 8 6 4 5 4 8 21 24 22 15 14 10 8 9 10 10 9 7 6 6 6 5 5 6 7 8 9 7 6 4 3 4 6 8 11 14 17 20 23 25 27 30 32 35
15 27 11 10 6 7 6 8 4 7 6 6 6 10 12 15 34 48 38 18 11 10 8 7 5 5 6 5 7 6 7 8 9 11 14 13 14 14 14 14 14 15 16 16 17 18 21 25 28 31 39 43 47 50
18 19 8 7 4 5 10 9 6 8 7 9 10 9 6 5 18 52 55 34 16 13 11 10 8 5 4 7 8 7 8 9 12 14 17 18 19 19 18 18 18 19 20 22 25 28 32 37 41 47 51 55 57 58
17 13 8 8 5 9 13 11 5 4 5 5 7 6 5 8 10 30 52 40 29 23 20 16 14 13 12 11 11 11 12 15 17 19 20 21 21 22 23 25 27 31 35 39 43 47 52 56 60 61 61 61 60 60
10 13 8 7 3 5 16 15 2 4 8 6 9 10 10 9 11 29 33 40 42 44 44 41 39 37 30 22 15 18 29 34 37 38 39 39 39 40 41 43 46 48 51 53 55 56 58 58 60 60 61 61 61 60
Wind_Direction_850mb
244 245 228 230 229 230 233 235 238 239 240 235 217 221 213 214 215 222 228 224 204 208 247 220 212 177 166 181 148 152 116 189 148 180 175 212 190 219 192 219 165 161 177 214 168 213 287 132 103 161 206 178 186 202
243 246 246 240 235 237 233 229 234 237 235 233 229 236 244 244 232 221 227 225 222 228 249 228 231 222 211 211 197 170 183 146 169 161 198 197 192 188 163 231 147 245 207 188 187 204 149 203 235 249 258 275 262 265
241 244 240 243 243 243 242 239 231 227 234 240 238 238 242 245 238 238 227 220 218 225 250 241 227 233 223 212 211 183 212 183 183 168 154 200 216 146 174 234 358 269 245 225 292 257 261 267 267 271 278 281 280 285
236 234 232 238 238 240 245 243 245 243 237 239 238 239 236 237 235 237 232 237 228 212 217 257 248 233 239 226 216 214 211 197 191 202 180 175 191 208 223 234 196 226 111 237 251 249 260 267 267 268 273 276 279 279
239 238 235 235 237 240 243 244 244 247 253 253 244 240 237 238 239 231 237 235 235 206 224 238 236 233 234 230 217 217 216 211 184 162 189 215 222 221 189 246 241 234 240 243 247 248 250 255 267 275 271 272 280 285
234 237 240 240 240 240 241 246 250 249 246 247 253 251 247 247 243 244 238 235 237 224 227 209 230 223 223 211 215 216 221 213 201 188 206 228 233 194 215 228 241 244 246 249 251 259 262 268 272 276 280 278 279 281
237 242 245 243 240 238 240 243 246 245 247 247 245 249 246 247 240 233 241 204 221 223 219 219 190 200 204 201 214 218 217 212 206 215 216 228 218 211 232 241 246 246 251 254 255 259 264 264 266 273 274 274 276 274
233 237 238 237 240 245 247 251 252 250 244 244 242 244 245 238 244 244 248 254 242 197 214 225 138 155 177 180 197 198 193 201 205 218 218 222 231 225 246 240 247 256 257 259 261 258 259 267 268 267 267 272 274 272
236 232 236 239 241 247 248 249 247 248 239 240 241 242 241 235 231 235 246 249 250 222 231 202 158 190 169 163 164 172 191 197 199 213 223 199 210 220 228 244 249 250 247 255 264 264 261 256 258 263 267 266 264 266
212 224 235 241 245 245 248 252 244 243 239 234 228 217 223 223 227 223 215 216 207 210 206 199 173 177 165 165 162 148 182 207 203 220 184 213 233 239 247 252 256 259 261 260 254 250 253 254 258 262 265 266 264 260
230 228 233 238 252 250 237 235 233 231 237 217 200 212 211 194 190 195 200 202 198 214 193 188 190 145 177 155 174 195 175 182 203 238 177 217 234 232 243 247 254 259 260 259 260 262 265 269 268 265 264 265 263 259
243 241 242 248 244 239 234 224 224 219 222 224 221 197 201 201 222 244 184 207 188 211 179 176 196 201 157 160 145 177 189 194 222 147 151 230 215 232 245 245 245 245 247 250 254 258 260 260 263 263 262 262 261 263
238 238 237 237 235 232 228 228 224 220 220 225 221 192 200 198 229 218 186 203 204 150 149 151 137 153 146 179 181 171 201 207 115 185 218 222 199 238 238 234 228 232 237 242 244 245 250 256 257 255 252 253 257 261
236 243 240 243 245 242 234 229 221 213 207 200 206 200 205 199 226 202 204 207 176 165 169 168 137 160 168 179 183 200 165 122 197 207 223 218 225 224 211 221 226 231 230 231 237 246 250 251 248 247 251 258 267 275
208 240 250 251 246 245 240 230 224 217 208 223 204 225 206 195 180 154 145 138 162 173 150 148 148 168 159 201 185 113 181 207 208 219 215 212 206 203 210 217 220 217 215 220 228 234 238 241 242 251 263 274 281 285
282 284 252 229 232 236 238 234 220 215 212 204 237 225 207 23 23 176 177 173 178 157 147 136 158 194 210 220 193 187 176 212 226 209 144 172 182 193 200 199 199 201 206 212 215 218 229 247 268 279 289 292 296 299
291 259 241 254 288 266 250 218 214 204 212 209 186 199 297 105 86 126 163 222 174 164 168 162 188 200 145 208 203 171 204 210 106 123 142 165 176 178 179 182 189 194 195 196 200 219 251 278 293 302 306 306 309 311
256 281 262 259 238 236 231 207 198 160 107 68 141 128 198 194 150 164 177 172 178 225 157 190 131 190 195 178 213 215 103 126 120 130 144 158 175 176 179 183 180 181 180 185 202 238 282 308 313 318 324 324 321 315
247 5 222 161 192 195 194 167 148 101 76 128 130 154 188 279 210 187 207 187 201 224 181 184 186 186 206 59 51 66 100 145 163 155 152 161 170 173 174 171 172 173 176 180 195 270 319 327 332 333 331 333 332 328
272 276 265 273 245 173 119 60 91 96 105 127 109 125 153 223 56 108 162 176 155 210 212 205 42 38 40 42 49 69 48 162 164 143 156 169 173 173 170 174 176 177 175 176 161 122 50 10 358 354 348 343 340 338
278 259 250 264 212 78 90 72 62 87 101 90 108 96 26 82 58 49 48 125 141 49 60 50 67 47 45 58 77 108 129 137 146 216 199 179 178 179 181 182 184 184 182 167 142 122 93 44 4 350 348 347 345 341
193 186 151 159 93 76 79 63 99 95 97 106 96 71 41 42 25 18 356 33 49 30 25 25 73 108 111 101 101 117 126 133 133 128 157 170 177 180 185 184 178 178 163 139 125 122 137 299 310 324 332 341 343 342
129 133 93 70 92 61 45 65 74 39 85 89 117 85 31 28 356 33 69 52 59 13 358 7 68 90 84 105 119 137 147 148 135 132 139 156 162 159 163 163 163 167 150 138 152 211 244 271 300 325 340 350 349 348
99 63 40 45 38 66 68 45 52 70 61 30 54 63 10 327 352 57 87 59 9 8 19 47 81 82 92 104 120 119 128 130 130 134 131 138 144 142 145 151 155 162 158 168 238 250 250 247 264 302 331 335 336 339
78 12 21 16 20 27 44 27 9 50 66 14 62 31 338 333 64 54 50 2 5 13 19 38 56 49 47 72 109 124 128 134 133 138 141 144 142 137 138 135 130 234 296 281 261 245 227 228 266 309 322 328 332 333
68 10 38 347 2 40 352 48 30 20 3 77 47 325 323 348 61 50 28 348 355 8 16 47 61 46 68 101 117 120 121 120 121 130 126 122 118 93 9 332 310 307 304 278 256 244 238 261 289 304 314 319 322 323
56 350 5 26 358 319 75 77 10 19 45 31 360 352 9 65 61 323 357 7 359 351 6 88 101 81 98 103 108 114 116 115 112 94 77 58 18 334 309 301 298 291 283 270 256 241 249 270 288 299 306 310 314 315
69 28 23 338 14 26 37 26 33 35 26 353 307 30 71 54 260 337 341 351 358 12 44 94 101 111 117 114 112 109 106 92 72 52 36 21 2 341 320 305 288 282 277 265 258 257 266 278 288 296 302 307 312 313
33 353 352 351 38 52 42 32 52 37 357 -0 354 60 71 58 19 12 356 356 16 43 83 115 111 113 122 106 71 56 41 45 24 34 23 7 352 341 336 331 320 297 281 276 276 280 284 289 294 298 301 306 310 311
2 358 356 4 40 36 5 12 349 351 31 48 85 100 98 85 46 33 26 25 32 47 65 86 96 96 70 52 45 33 4 346 331 325 322 325 318 310 300 291 287 287 289 289 288 286 289 293 296 298 299 302 304 305
350 356 359 19 76 28 360 1 62 73 72 64 80 101 112 101 50 28 23 28 47 55 65 71 71 78 16 2 1 358 354 353 346 332 322 316 310 303 296 291 288 286 287 290 293 294 295 294 295 296 297 299 300 301
350 13 -0 11 6 17 23 25 39 67 70 69 49 64 69 75 62 23 20 33 47 57 57 55 49 39 29 24 28 38 38 19 359 343 331 321 312 302 294 289 288 288 288 289 289 291 292 293 294 296 298 299 300 301
340 355 355 333 344 26 359 354 44 81 61 60 47 50 55 71 77 18 22 38 53 61 63 61 59 54 46 44 27 348 334 328 325 321 317 311 306 301 296 292 290 288 287 287 288 289 289 290 292 293 294 296 297 298